Location: Unspecified
(0.0000°N, 0.0000°E)
Time: 23:50:12
(UTC+00:00)

ISS - Pass Details

Date: 08 April 2024
Orbit: 412 x 425 km, 51.6° (Epoch: 06 October)

Event Time Altitude Azimuth Distance (km) Brightness Sun altitude
Rises 18:53:02 0° 301° (WNW) 2,392 1.4 -12.7°
Reaches altitude 10° 18:55:29 10° 284° (WNW) 1,543 0.6 -13.3°
Maximum altitude 18:58:08 20° 234° (SW) 1,073 -1.1 -14.0°
Drops below altitude 10° 19:00:51 10° 184° (S) 1,584 -0.9 -14.7°
Enters shadow 19:03:08 - 168° (SSE) 2,374 -0.1 -15.2°
